AO-07 1 07530U 74089B 22153.50892907 -.00000041 00000-0 29769-4 0 9999 2 07530 101.9035 133.3323 0012649 70.9473 44.8007 12.53655149175597 UO-11 1 14781U 84021B 22153.47922506 .00000547 00000-0 72302-4 0 9998 2 14781 97.6168 141.5968 0008888 21.5443 338.6144 14.83656425 37828 LO-19 1 20442U 90005G 22153.43869655 .00000053 00000-0 35935-4 0 9992 2 20442 98.7930 118.0715 0011115 208.1907 151.8676 14.33060191690950 HUBBLE 1 20580U 90037B 22153.69933601 .00001612 00000-0 84491-4 0 9994 2 20580 28.4698 266.5643 0002326 232.2904 237.6843 15.10537216564246 MET-2/21 1 22782U 93055A 22153.41043247 .00000074 00000-0 52895-4 0 9995 2 22782 82.5508 26.1801 0023097 32.7217 139.9104 13.83854858451923 AO-27 1 22825U 93061C 22153.33298340 .00000040 00000-0 33314-4 0 9995 2 22825 98.8875 184.0504 0009599 95.5664 264.6612 14.30172021495999 IO-26 1 22826U 93061D 22153.35984460 .00000046 00000-0 35331-4 0 9990 2 22826 98.8819 183.9580 0010120 83.6708 276.5626 14.30517473496250 FO-29 1 24278U 96046B 22153.49627551 -.00000016 00000-0 21961-4 0 9991 2 24278 98.5168 179.2397 0349629 322.2719 35.4363 13.53115572273581 NOAA-15 1 25338U 98030A 22153.82673325 .00000121 00000-0 68904-4 0 9995 2 25338 98.6446 183.5530 0009945 347.1565 12.9360 14.26133090251180 GO-32 1 25397U 98043D 22153.45987449 .00000025 00000-0 30721-4 0 9997 2 25397 98.8171 103.8888 0002032 121.9153 238.2223 14.23755099241292 ISS 1 25544U 98067A 22153.88703229 .00005809 00000-0 11032-3 0 9994 2 25544 51.6443 47.4197 0004562 187.2963 270.8649 15.49830374342964 NO-44 1 26931U 01043C 22153.56191414 .00000053 00000-0 51738-4 0 9999 2 26931 67.0511 96.8345 0007823 265.7880 94.2327 14.30704006 79271 SO-50 1 27607U 02058C 22153.01013508 .00000309 00000-0 63152-4 0 9991 2 27607 64.5555 349.1603 0077573 297.4515 61.8714 14.76114892 46091 CO-55 1 27844U 03031E 22153.51423064 .00000151 00000-0 87439-4 0 9992 2 27844 98.6784 161.4266 0010670 139.8648 220.3319 14.22447064981741 CO-57 1 27848U 03031J 22153.82437850 .00000128 00000-0 77507-4 0 9997 2 27848 98.6830 162.2545 0010298 152.2225 207.9504 14.22004848981636 RS-22 1 27939U 03042A 22153.66856333 .00000518 00000-0 10039-3 0 9992 2 27939 98.1895 294.3938 0011755 252.2440 107.7484 14.67341799998871 NOAA-18 1 28654U 05018A 22153.75817271 .00000140 00000-0 99602-4 0 9995 2 28654 98.9493 224.2054 0014393 17.8503 342.3171 14.12736741877999 CO-58 1 28895U 05043F 22153.34924532 .00000586 00000-0 11993-3 0 9994 2 28895 98.1047 284.9624 0016642 184.3947 175.7112 14.64322249885207 Falconsat-3 1 30776U 07006E 22153.86031011 .00024553 00000-0 38727-3 0 9998 2 30776 35.4324 355.8092 0003732 320.5581 39.4879 15.52573481847311 CO-65 1 32785U 08021C 22153.85331372 .00001186 00000-0 12987-3 0 9997 2 32785 97.6565 125.1659 0010996 284.7862 75.2137 14.89549045764388 AAUSAT2 1 32788U 08021F 22153.40226793 .00001706 00000-0 15152-3 0 9996 2 32788 97.5332 139.2533 0011388 164.4193 195.7382 14.97379147766189 DO-64 1 32789U 08021G 22153.34395218 .00007322 00000-0 41190-3 0 9990 2 32789 97.3393 180.1919 0010653 28.6898 331.4918 15.13500997769641 CO-66 1 32791U 08021J 22153.49361914 .00001838 00000-0 18375-3 0 9990 2 32791 97.6109 130.3287 0011122 235.2868 124.7305 14.92606726765048 RS-30 1 32953U 08025A 22153.65036532 .00000021 00000-0 80971-4 0 9992 2 32953 82.5039 193.1363 0017975 294.2218 65.6984 12.43110379636491 PRISM 1 33493U 09002B 22153.53315024 .00001892 00000-0 15844-3 0 9994 2 33493 98.2307 139.2606 0013426 211.8711 148.1699 14.99719212726746 NOAA-19 1 33591U 09005A 22153.82856591 .00000116 00000-0 88021-4 0 9993 2 33591 99.1485 187.6575 0013191 225.9484 134.0601 14.12571679686386 SRMSAT 1 37841U 11058D 22153.82739311 .00000364 00000-0 54841-4 0 9994 2 37841 19.9736 343.3279 0011853 183.2817 206.0157 14.10754265549395 HRBE 1 37855U 11061F 22153.55126672 .00008750 00000-0 38670-3 0 9991 2 37855 101.7075 264.7525 0154194 107.2260 254.5898 15.12081395578987 RS-40 1 38735U 12041C 22153.43896626 .00000004 00000-0 -45537-4 0 9994 2 38735 82.4747 274.8507 0017894 47.1390 313.1189 12.42585591446659 ZACUBE-1 1 39417U 13066B 22153.71909674 .00001251 00000-0 15819-3 0 9992 2 39417 97.6356 125.8835 0059569 92.8572 267.9461 14.82287715460944 Delfi-N3xt 1 39428U 13066N 22153.54295421 .00001748 00000-0 27618-3 0 9994 2 39428 97.8144 88.5423 0116675 326.3577 33.0259 14.69133861456346 GOMX-1 1 39430U 13066Q 22153.85873357 .00001308 00000-0 24019-3 0 9995 2 39430 97.8109 61.8916 0150800 90.8612 270.9849 14.60149253454160 LO-74 1 39440U 13066AA 22153.48341896 .00000801 00000-0 11522-3 0 9995 2 39440 97.7253 111.6721 0078712 178.8903 181.2497 14.76967146458072 AO-73 1 39444U 13066AE 22153.74650947 .00001569 00000-0 19202-3 0 9993 2 39444 97.6236 128.3130 0058480 81.4854 279.2982 14.83360190459936 SPROUT 1 39770U 14029E 22153.75022377 .00005169 00000-0 53120-3 0 9993 2 39770 97.9395 270.6008 0009290 131.1392 229.0614 14.90763264435472 DTUSAT-2 1 40030U 14033W 22153.26683078 .00001300 00000-0 14095-3 0 9997 2 40030 97.9375 85.9741 0013302 101.9836 258.2873 14.89900372431387 EO-80 1 40032U 14033Y 22153.77602869 .00001407 00000-0 15213-3 0 9995 2 40032 97.9379 86.4984 0013216 101.3842 258.8861 14.89872589431957 HODOYOSHI-1 1 40299U 14070B 22153.67282955 .00004804 00000-0 18470-3 0 9992 2 40299 97.2435 222.2357 0012215 182.6577 328.9158 15.26810016420806 FIREBIRD FU3 1 40377U 15003B 22153.51603870 .00011464 00000-0 34695-3 0 9999 2 40377 99.1020 15.1021 0102646 76.2180 285.0454 15.29294028406131 FIREBIRD FU4 1 40378U 15003C 22153.54253219 .00011532 00000-0 34797-3 0 9990 2 40378 99.1025 15.3410 0102595 75.8053 285.4553 15.29389191406149 GRIFEX 1 40379U 15003D 22153.53849973 .00008154 00000-0 29097-3 0 9991 2 40379 99.1128 1.4195 0117463 117.1302 244.1966 15.22861491405361 XW-2A 1 40903U 15049E 22153.71090394 .00018841 00000-0 30323-3 0 9997 2 40903 97.1799 212.2266 0010631 167.2035 290.6695 15.52953771376970 XW-2C 1 40906U 15049H 22153.71323833 .00005192 00000-0 25102-3 0 9991 2 40906 97.4917 157.2449 0015289 54.9675 56.0083 15.18952911370689 XW-2D 1 40907U 15049J 22153.74313400 .00005975 00000-0 28324-3 0 9992 2 40907 97.4909 157.2446 0014728 51.9980 61.8939 15.19583363370733 LILACSAT-2 1 40908U 15049K 22153.70690289 .00002754 00000-0 14759-3 0 9991 2 40908 97.5163 154.4369 0017029 70.0255 40.2668 15.15722097370256 XW-2E 1 40909U 15049L 22153.69411028 .00009139 00000-0 38709-3 0 9997 2 40909 97.4641 161.6853 0013260 34.8664 75.1643 15.23308252371163 XW-2F 1 40910U 15049M 22153.74907134 .00009068 00000-0 38995-3 0 9991 2 40910 97.4716 160.8743 0014092 36.6616 78.1952 15.22784097370943 XW-2B 1 40911U 15049N 22153.77821274 .00005761 00000-0 27408-3 0 9998 2 40911 97.4902 157.8851 0014616 51.9910 122.2646 15.19472281370627 DCBB 1 40912U 15049P 22153.71639521 .00010440 00000-0 40969-3 0 9992 2 40912 97.4356 165.1901 0012677 2.7096 109.6567 15.25844148371504 TW-1A 1 40928U 15051D 22153.66955545 .00035476 00000-0 45978-3 0 9994 2 40928 97.0385 176.4620 0009806 88.7798 50.5411 15.58737596375932 IO-86 1 40931U 15052B 22153.05305260 .00001097 00000-0 63304-4 0 9991 2 40931 5.9987 278.9669 0013753 311.8894 48.0319 14.76812617361061 AO-85 1 40967U 15058D 22151.39319798 .00001290 00000-0 14886-3 0 3845 2 40967 64.7725 123.9697 0197206 205.8804 153.2327 14.77383297 58140 ATHENOXAT-1 1 41168U 15077C 22153.80610515 .00008347 00000-0 33456-3 0 9995 2 41168 14.9830 198.9555 0009916 33.3791 112.3845 15.20707881358076 ChubuSat-2 1 41338U 16012B 22153.57343093 .00001432 00000-0 10187-3 0 9996 2 41338 31.0019 118.6359 0013317 4.3275 355.7474 15.01334413345242 ChubuSat-3 1 41339U 16012C 22153.56703732 .00001879 00000-0 13543-3 0 9990 2 41339 31.0092 115.6147 0013267 10.7021 349.3893 15.01420294345247 Horyu-4 1 41340U 16012D 22153.23322852 .00002204 00000-0 15239-3 0 9993 2 41340 31.0044 96.3203 0013032 48.1840 311.9908 15.03241826345435 [email protected] 1 41459U 16025D 22153.54537553 .00006434 00000-0 28299-3 0 9997 2 41459 98.1826 317.5982 0145104 320.1937 38.8714 15.13232652335242 AAUSAT4 1 41460U 16025E 22153.71907600 .00011362 00000-0 44406-3 0 9996 2 41460 98.1778 323.8536 0125784 295.8189 63.0024 15.18940298335706 LO-87 1 41557U 16033B 22153.71851475 .00011468 00000-0 34556-3 0 9992 2 41557 97.3876 251.3941 0012165 76.4592 67.1005 15.34413474335126 NuSat2 1 41558U 16033C 22153.76595133 .00010299 00000-0 29226-3 0 9993 2 41558 97.4066 257.0614 0011369 64.3076 87.4889 15.36343306335399 Lapan A3 1 41603U 16040E 22153.70465213 .00001332 00000-0 63594-4 0 9996 2 41603 97.2065 191.3743 0012261 205.9959 294.0446 15.20639252329798 Pratham 1 41783U 16059A 22153.38425624 .00000260 00000-0 58954-4 0 9994 2 41783 97.9142 195.5422 0032529 219.6051 140.2776 14.63344850303427 TY-1 1 41844U 16066D 22153.71111890 .00011691 00000-0 40188-3 0 9993 2 41844 97.3883 165.7827 0012255 349.6298 100.0536 15.30179972309352 CAS-2T 1 41847U 16066G 22153.45794922 .00000319 00000-0 58989-4 0 9994 2 41847 98.5514 218.1430 0362717 254.6927 101.3906 14.38563990292199 EO-88 1 42017U 17008BX 22153.63048119 .00009742 00000-0 29616-3 0 9994 2 42017 97.2690 219.9634 0003362 300.2550 59.8361 15.34238911294804 CAS-4B 1 42759U 17034B 22153.70280733 .00003866 00000-0 23500-3 0 9991 2 42759 43.0185 53.9992 0008711 206.7847 192.9652 15.11816031274125 CAS-4A 1 42761U 17034D 22153.74142605 .00003605 00000-0 21946-3 0 9996 2 42761 43.0179 52.5798 0009157 207.4691 202.9967 15.11907536274133 NIUSat 1 42766U 17036B 22153.51279480 .00005869 00000-0 22932-3 0 9990 2 42766 97.2021 191.8692 0014077 28.2333 331.9666 15.26148758274525 Aalto 1 1 42775U 17036L 22153.54369001 .00004355 00000-0 17449-3 0 9998 2 42775 97.1978 191.8473 0013017 27.9481 332.2454 15.25462038274501 URSA MAIOR 1 42776U 17036M 22153.33321290 .00004796 00000-0 18888-3 0 9991 2 42776 97.1993 192.3577 0012658 27.7738 332.4175 15.25992971274509 Max Valier Sat 1 42778U 17036P 22153.57809123 .00005401 00000-0 20744-3 0 9993 2 42778 97.2054 195.1917 0011307 29.7988 330.3893 15.26792691274634 Pegasus 1 42784U 17036V 22153.38719097 .00006774 00000-0 24560-3 0 9993 2 42784 97.1993 195.8092 0010581 31.5305 328.6567 15.28611651274715 NUDATSat 1 42787U 17036Y 22153.55073016 .00018416 00000-0 57486-3 0 9998 2 42787 97.2041 199.9496 0008374 22.4570 337.6974 15.33216402274810 SUCHAI 1 1 42788U 17036Z 22153.07332670 .00009361 00000-0 32123-3 0 9990 2 42788 97.2004 197.0949 0009621 28.7174 331.4596 15.30316104274838 SKCUBE 1 42789U 17036AA 22153.58600493 .00007841 00000-0 27539-3 0 9994 2 42789 97.1996 197.0765 0009731 28.1253 332.0511 15.29613624274804 VZLUSAT 1 1 42790U 17036AB 22153.10008415 .00011861 00000-0 37324-3 0 9990 2 42790 97.2026 199.4831 0008107 23.7627 336.3989 15.33060104274892 VENTA 1 1 42791U 17036AC 22153.08966263 .00007310 00000-0 26123-3 0 9991 2 42791 97.2000 196.4968 0009621 30.6445 329.5355 15.29070303274719 Robusta 1B 1 42792U 17036AD 22153.08870476 .00008212 00000-0 28414-3 0 9999 2 42792 97.1997 197.1453 0009331 30.1576 330.0200 15.30091156274772 D-SAT 1 42794U 17036AF 22153.53149095 .00000958 00000-0 85188-4 0 9998 2 42794 97.4509 159.7322 0124507 134.6466 226.4987 14.92562985269253 TechnoSat 1 42829U 17042E 22153.86407708 .00000856 00000-0 89782-4 0 9999 2 42829 97.4226 8.8536 0015411 59.7702 300.5041 14.91833351265913 QIKCOM-1 1 42983U 98067NF 22153.78438157 .00106570 15623-4 27960-3 0 9999 2 42983 51.6294 259.3676 0005889 308.8044 51.2437 15.94699864262597 AO-91 1 43017U 17073E 22153.51099754 .00001636 00000-0 12851-3 0 9992 2 43017 97.6766 48.3145 0247567 236.6019 121.1292 14.81329593244903 PICSAT 1 43132U 18004X 22153.46329989 .00007869 00000-0 26408-3 0 9992 2 43132 97.3721 229.9262 0008436 60.8488 299.3596 15.31116216244113 AO-92 1 43137U 18004AC 22153.63473620 .00006207 00000-0 22176-3 0 9991 2 43137 97.3687 228.9268 0008784 63.1498 297.0639 15.29159735244075 TianYi 2 1 43155U 18008A 22153.70777427 .00006728 00000-0 36077-3 0 9998 2 43155 97.3530 212.5807 0016016 190.3214 266.0569 15.15181497241043 Zhou Enlai 1 43156U 18008B 22153.73053255 .00006930 00000-0 37424-3 0 9990 2 43156 97.3578 212.4743 0013341 190.4332 318.2224 15.14953463240972 TianYi 6 1 43158U 18008D 22153.63812066 .00005983 00000-0 33291-3 0 9999 2 43158 97.3531 210.3951 0013219 189.5461 321.7885 15.13943310240866 S-Net D 1 43186U 18014G 22153.53155114 .00001159 00000-0 10340-3 0 9991 2 43186 97.6587 59.5566 0010512 354.9058 5.2055 14.97861525236685 S-Net B 1 43187U 18014H 22153.53166661 .00001154 00000-0 10291-3 0 9991 2 43187 97.6584 59.5090 0010494 354.9170 5.1944 14.97859870236685 S-Net A 1 43188U 18014J 22153.73234858 .00001158 00000-0 10329-3 0 9994 2 43188 97.6588 59.7681 0010465 354.3662 5.7441 14.97859687236714 S-Net C 1 43189U 18014K 22153.26540998 .00001169 00000-0 10421-3 0 9993 2 43189 97.6583 59.2367 0010495 355.8308 4.2825 14.97856075235191 FMN 1 1 43192U 18015A 22153.72971067 .00023497 00000-0 63360-3 0 9992 2 43192 97.5320 298.4505 0011498 84.8740 24.6925 15.37741885241187 Shaonian Xing 1 43199U 18015H 22153.69848196 .00014872 00000-0 45417-3 0 9991 2 43199 97.5110 293.7571 0014200 96.8759 1.8375 15.33904086241185 SurfSat 1 43614U 18070B 22153.77494283 .00026521 00000-0 40462-3 0 9996 2 43614 93.0320 92.5197 0014965 82.1899 278.1062 15.54240697208786 CP-7 DAVE 1 43615U 18070C 22153.32175535 .00021466 00000-0 34145-3 0 9998 2 43615 93.0308 92.1935 0015271 84.0349 276.2652 15.53101712208687 ELFIN-B 1 43616U 18070D 22153.55962709 .00056003 00000-0 56366-3 0 9995 2 43616 93.0215 93.3761 0013577 82.1195 278.1614 15.65130360209022 ELFIN-A 1 43617U 18070E 22153.32803879 .00058237 00000-0 54183-3 0 9999 2 43617 93.0283 94.5912 0012678 81.3562 278.9143 15.67106280209031 CubeBel-1 1 43666U 18083E 22153.68707409 .00009118 00000-0 38926-3 0 9999 2 43666 97.4207 182.5414 0013928 33.3786 106.4398 15.23030436199236 Changshagaoxin 1 43669U 18083H 22153.71765520 .00008595 00000-0 38459-3 0 9993 2 43669 97.4149 178.5928 0010560 33.5508 101.7450 15.21479361199062 Ten-Koh 1 43677U 18084G 22153.58189570 .00000899 00000-0 96595-4 0 9998 2 43677 97.9622 283.4990 0014933 324.4614 35.5608 14.91066791195469 PO-101 1 43678U 18084H 22153.83081631 .00000558 00000-0 60625-4 0 9993 2 43678 97.9673 286.9250 0009494 341.4463 18.6385 14.92150969195679 IRVINE 01 1 43693U 18088D 22153.49410542 .00022468 00000-0 62003-3 0 9998 2 43693 85.0280 320.9828 0013405 162.2004 197.9718 15.36864448197929 QO-100 1 43700U 18090A 22153.01176111 .00000154 00000-0 00000-0 0 9993 2 43700 0.0135 304.2983 0000867 139.4468 196.7921 1.00275899 12874 Reaktor Hello World 1 43743U 18096AA 22153.46017530 .00008045 00000-0 24853-3 0 9996 2 43743 97.3525 233.3933 0016716 113.1160 247.1846 15.33660394195663 MinXSS-2 1 43758U 18099A 22153.61319099 .00002273 00000-0 20069-3 0 9999 2 43758 97.6252 221.8883 0013580 320.5417 39.4815 14.97300700190888 AO-95 1 43770U 18099N 22153.14368599 .00001835 00000-0 16684-3 0 9991 2 43770 97.6216 219.8912 0013094 333.6725 26.3830 14.96380514190724 RANGE-B 1 43772U 18099Q 22153.14444197 .00002500 00000-0 22201-3 0 9994 2 43772 97.6325 221.5300 0012193 318.8764 41.1538 14.96987629190747 RANGE-A 1 43773U 18099R 22153.12858150 .00001648 00000-0 15184-3 0 9995 2 43773 97.6140 218.7830 0012005 319.4679 40.5647 14.95986943190700 MOVE-II 1 43780U 18099Y 22153.45023238 .00002446 00000-0 21388-3 0 9990 2 43780 97.6236 221.2748 0011767 324.2288 35.8145 14.97613411190816 SNUSat 2 1 43782U 18099AA 22153.45992929 .00001753 00000-0 15901-3 0 9998 2 43782 97.6207 220.6566 0010976 316.0152 44.0195 14.96546548190796 SnugLite 1 43784U 18099AC 22153.43275983 .00000948 00000-0 87815-4 0 9991 2 43784 97.6171 220.2751 0013812 323.1233 36.9037 14.96753382190815 ITASat 1 1 43786U 18099AE 22153.47282514 .00001936 00000-0 17507-3 0 9993 2 43786 97.6242 221.1218 0013572 323.9225 36.1080 14.96533154190819 EAGLET 1 1 43790U 18099AJ 22153.16927956 .00000638 00000-0 60751-4 0 9998 2 43790 97.6231 221.3559 0012338 328.3956 31.6523 14.96716391190505 ESEO 1 43792U 18099AL 22153.43258002 .00000087 00000-0 12795-4 0 9992 2 43792 97.6186 220.8528 0012301 325.2321 34.8096 14.96168719190581 CSIM 1 43793U 18099AM 22153.43047719 .00001573 00000-0 13695-3 0 9994 2 43793 97.6257 222.1290 0011315 318.6230 41.4134 14.98303652190633 Astrocast 0.1 1 43798U 18099AS 22153.43278499 .00001363 00000-0 12167-3 0 9990 2 43798 97.6243 222.0490 0010848 302.5827 57.4347 14.97538902190863 JO-97 1 43803U 18099AX 22153.42860232 .00000836 00000-0 77508-4 0 9993 2 43803 97.6198 220.8307 0013728 322.5781 37.4483 14.97012922190827 Suomi 100 1 43804U 18099AY 22153.44547309 .00001356 00000-0 12294-3 0 9991 2 43804 97.6186 220.7722 0013766 321.3640 38.6596 14.96915416190836 Al Farabi 2 1 43805U 18099AZ 22153.57178070 .00002309 00000-0 20287-3 0 9991 2 43805 97.6273 221.3571 0013451 320.8816 39.1430 14.97465200190872 CHOMPTT 1 43855U 18104G 22153.24404687 .00004815 00000-0 17773-3 0 9993 2 43855 85.0370 61.2889 0013049 299.9158 60.0790 15.27402042192409 ISAT 1 43879U 18111D 22153.56789075 .00001904 00000-0 16622-3 0 9997 2 43879 97.6679 59.4478 0013451 19.3199 340.8531 14.97934276187440 UWE-4 1 43880U 18111E 22153.23882902 .00001424 00000-0 12506-3 0 9990 2 43880 97.6711 59.8157 0012833 21.0110 339.1637 14.98094421187429 Sparrow 1 43881U 18111F 22153.52473535 .00001627 00000-0 14174-3 0 9999 2 43881 97.6700 60.3176 0012474 13.4599 346.6954 14.98228021187478 Lume 1 1 43908U 18111AJ 22153.20886665 .00005466 00000-0 18885-3 0 9994 2 43908 97.1930 41.4978 0020438 125.0854 235.2307 15.30130900191061 FO-99 1 43937U 19003F 22153.32788500 .00006811 00000-0 23294-3 0 9994 2 43937 97.1307 187.2708 0020366 202.3734 157.6622 15.30372430187661 MYSat 1 1 44045U 18092F 22153.35316348 .00026177 00000-0 40906-3 0 9998 2 44045 51.6307 147.9662 0011493 43.1532 317.0357 15.53537470185529 AstroCast 0.2 1 44083U 19018F 22153.61622384 .00007720 00000-0 29980-3 0 9990 2 44083 97.3226 212.7693 0011760 172.0321 188.1107 15.26290809176227 AISTechSat 3 1 44103U 19018AB 22153.42101194 .00004740 00000-0 17954-3 0 9990 2 44103 97.3088 212.9677 0012483 181.2519 178.8692 15.27312662176356 AISat 1 1 44104U 19018AC 22153.50543999 .00005743 00000-0 16298-3 0 9997 2 44104 97.3958 236.5854 0052643 185.1265 174.9446 15.35214296177308 Prox-1 1 44339U 19036A 22153.58223316 .00002131 00000-0 43693-3 0 9990 2 44339 24.0008 287.3601 0011167 51.1820 308.9668 14.54991862156189 Oculus-ASR 1 44348U 19036K 22153.77798614 .00065012 -50702-5 63264-3 0 9992 2 44348 28.5032 293.4184 0246138 146.5840 215.0555 15.35017479162282 Armadillo 1 44352U 19036P 22153.55366919 .00132896 -20765-5 68446-3 0 9990 2 44352 28.5219 223.3466 0139647 257.1409 101.3564 15.66732230162915 NO-104 1 44354U 19036R 22153.54989109 .00063332 -52030-5 58263-3 0 9997 2 44354 28.5257 281.5452 0236549 162.5527 198.3363 15.37937717162388 Move-IIb 1 44398U 19038N 22153.59633567 .00008903 00000-0 43465-3 0 9991 2 44398 97.6365 122.8049 0022658 174.2416 185.9064 15.18288401160783 SONATE 1 44400U 19038Q 22153.59169199 .00003469 00000-0 19079-3 0 9996 2 44400 97.6413 122.0286 0023796 180.3063 179.8148 15.14523066160685 BeeSat 9 1 44412U 19038AC 22153.40929826 .00004621 00000-0 23853-3 0 9996 2 44412 97.6349 122.5899 0020409 180.6389 179.4821 15.16652507160413 JAISAT-1 1 44419U 19038F 22153.46570425 .00004997 00000-0 25432-3 0 9997 2 44419 97.6352 123.4723 0019524 177.2718 182.8625 15.17129041160787 LightSail-2 1 44420U 19036AC 22153.53373451 .00030935 00000-0 41307-2 0 9994 2 44420 24.0002 229.7563 0013382 118.6047 241.5797 14.78081211154875 Taurus 1 1 44530U 19059C 22153.55500449 .00002531 00000-0 70684-3 0 9994 2 44530 98.5456 251.9226 0014657 159.3837 200.7928 14.47027330143693 Duchifat 3 1 44854U 19089C 22153.47287665 .00003036 00000-0 23934-3 0 9996 2 44854 36.9661 189.1501 0007177 96.7445 263.4066 15.01002948135680 OPS-SAT 1 44878U 19092F 22153.51412301 .00005149 00000-0 24269-3 0 9997 2 44878 97.4798 337.5955 0013149 38.5185 321.6986 15.19864706135924 TO-108 1 44881U 19093C 22153.85693211 .00000582 00000-0 80493-4 0 9998 2 44881 97.8924 233.2750 0013849 230.8208 129.1760 14.81714563132615 FloripaSat 1 1 44885U 19093G 22153.63694052 .00001960 00000-0 24690-3 0 9999 2 44885 97.8957 234.2984 0013426 237.6620 122.3283 14.83098259132657 RS-44 1 44909U 19096E 22153.49281701 .00000024 00000-0 53802-4 0 9994 2 44909 82.5228 240.2120 0217163 355.0279 4.8663 12.79713214113590 Phoenix 1 45258U 98067RB 22153.82263820 .00593264 18670-3 71442-3 0 9993 2 45258 51.6259 349.1343 0008820 258.6225 101.3798 16.07574089130133 BY70-2 1 45857U 20042B 22153.88763017 .00007140 00000-0 95691-3 0 9995 2 45857 97.9539 230.8677 0011513 157.9720 202.1783 14.79656569103306 UPMSat 2 1 46276U 20061E 22153.47684514 .00002711 00000-0 13625-3 0 9997 2 46276 97.3919 224.6425 0001424 153.9358 206.1948 15.18092973 96601 AmicalSat 1 46287U 20061R 22153.46273009 .00003418 00000-0 19966-3 0 9990 2 46287 97.4465 223.5604 0001884 8.8541 351.2723 15.12565546 96203 SALSAT 1 46495U 20068K 22153.39803145 .00001547 00000-0 11490-3 0 9995 2 46495 97.7282 94.6946 0015859 333.2086 26.8319 15.04452293 91921 BY70-3 1 46839U 20079N 22153.84553676 .00020346 00000-0 48655-3 0 9991 2 46839 97.1979 226.1356 0005868 40.6886 95.8393 15.41489782 87997 SPOC 1 46921U 98067RR 22153.85118871 .00271067 39759-4 69266-3 0 9996 2 46921 51.6264 4.5217 0006054 242.8506 117.1885 15.94828876 89678 Neutron-1 1 46923U 98067RT 22153.64554788 .00264085 38150-4 68868-3 0 9999 2 46923 51.6276 6.1652 0005851 241.4230 118.6189 15.94458282 89669 CAPE 3 1 47309U 21002A 22153.46381468 .00005626 00000-0 23691-3 0 9994 2 47309 60.6855 60.9297 0017646 318.3187 41.6555 15.24545372 76167 AO-109 1 47311U 21002C 22153.12819948 .00004632 00000-0 19420-3 0 9990 2 47311 60.6875 59.9284 0013403 319.2284 40.7800 15.25097170 76129 MiTEE 1 1 47314U 21002F 22153.42411876 .00009370 00000-0 33187-3 0 9994 2 47314 60.6841 52.6849 0011155 301.9860 58.0145 15.29727074 76291 ExoCube 2 1 47319U 21002L 22153.45045236 .00004947 00000-0 20913-3 0 9993 2 47319 60.6855 59.7407 0015010 320.4915 39.5077 15.24669289 76128 UVSQ-SAT 1 47438U 21006AB 22153.62322215 .00003575 00000-0 19174-3 0 9996 2 47438 97.4375 212.9388 0010827 333.1662 26.9010 15.15553300 75039 YUSAT 1 1 47439U 21006AC 22153.39948583 .00003755 00000-0 19900-3 0 9990 2 47439 97.4380 212.8038 0010545 333.8509 26.2190 15.15955064 75003 SOMP 2b 1 47445U 21006AJ 22153.42032972 .00002970 00000-0 16127-3 0 9993 2 47445 97.4348 212.4189 0010602 338.8931 21.1862 15.15244613 74993 IDEASSat 1 47458U 21006AX 22153.13648329 .00003054 00000-0 16654-3 0 9993 2 47458 97.4437 212.6233 0009764 338.4985 21.5836 15.15080172 74948 RSP-01 1 47925U 98067SB 22153.60378452 .00779471 32770-3 95241-3 0 9996 2 47925 51.6261 14.1117 0010168 251.5161 108.4747 16.07331228 69506 Tsuru 1 47927U 98067SD 22153.02391040 .00192078 00000-0 69315-3 0 9995 2 47927 51.6329 22.3202 0005614 215.3566 144.7067 15.87550764 69341 Maya-2 1 47929U 98067SF 22153.34450616 .00191964 00000-0 70526-3 0 9996 2 47929 51.6322 20.7095 0005547 215.2000 144.8639 15.87187800 69359 GuaraniSat-1 1 47931U 98067SH 22153.07177119 .00184696 00000-0 66372-3 0 9991 2 47931 51.6307 21.9029 0005643 216.7362 143.3256 15.87655415 69350 CubeSX-Sirius-HSE 1 47951U 21022V 22153.69515691 .00003175 00000-0 21314-3 0 9998 2 47951 97.5311 53.5251 0020405 192.4225 245.1559 15.07366767 65775 CubeSX-HSE 1 47952U 21022W 22153.75110676 .00003648 00000-0 24383-3 0 9994 2 47952 97.5319 53.5989 0020618 191.8123 255.1418 15.07425353 65781 KSU-Cubesat 1 47954U 21022Y 22153.83439752 .00001996 00000-0 13456-3 0 9997 2 47954 97.5324 53.7742 0020258 189.9224 170.1607 15.07646952 65526 GRBAlpha 1 47959U 21022AD 22153.81327389 .00003863 00000-0 25781-3 0 9991 2 47959 97.5322 53.6951 0020450 191.9556 241.0816 15.07448910 64618 Orbicraft-Zorkiy 1 47960U 21022AE 22153.72525171 .00004415 00000-0 29294-3 0 9999 2 47960 97.5355 53.7341 0020046 191.6493 253.3939 15.07593027 65295 STECCO 1 47962U 21022AG 22153.69587557 .00005723 00000-0 36014-3 0 9994 2 47962 97.5314 54.3381 0015014 183.9125 260.8442 15.09496631 64643 DO-111 1 47963U 21022AH 22153.46822321 .00009011 00000-0 51065-3 0 9998 2 47963 97.5338 55.0061 0017098 176.2924 183.8437 15.13104098 64689 MO-110 1 47964U 21022AJ 22153.46327518 .00004318 00000-0 26975-3 0 9994 2 47964 97.5321 54.3503 0018414 181.5171 178.6006 15.09856275 64625 FEES 1 48082U 21022AL 22153.53203391 .00005671 00000-0 34910-3 0 9997 2 48082 97.5331 54.3177 0014793 176.2050 183.9294 15.10307262 64333 RamSat 1 48850U 98067SL 22153.38099668 .00045364 00000-0 39466-3 0 9990 2 48850 51.6381 34.5202 0001537 90.0021 270.1152 15.68573884 54962 TUBIN 1 48900U 21059X 22153.84419257 .00003976 00000-0 22341-3 0 9991 2 48900 97.5512 283.2634 0010786 147.9496 5.3384 15.13833881 51709 IT-SPINS 1 49017U 21013G 22153.26424767 .00004839 00000-0 19650-3 0 9997 2 49017 51.5982 112.3741 0009597 27.5301 332.6183 15.26357519 51466 LEDSAT 1 49069U 21073D 22153.65852061 .00002087 00000-0 13646-3 0 9997 2 49069 97.5246 226.8409 0026541 348.7013 11.3617 15.08604554 43608 CUTE 1 49263U 21088D 22153.41663954 .00002788 00000-0 21079-3 0 9991 2 49263 97.5862 221.6368 0021140 114.2471 246.0966 15.02995880 37166 Binar-1 1 49272U 98067SR 22153.39361476 .00051824 00000-0 45802-3 0 9998 2 49272 51.6366 38.3289 0003539 205.4805 154.6017 15.68125506 37306 Maya-3 1 49273U 98067SS 22153.36903169 .00100690 00000-0 63139-3 0 9996 2 49273 51.6336 35.1464 0005027 206.1387 153.9360 15.75965129 37349 Maya-4 1 49274U 98067ST 22153.38811677 .00096840 00000-0 62130-3 0 9992 2 49274 51.6346 35.2709 0004807 201.2612 158.8188 15.75459598 37346 CUAVA-1 1 49275U 98067SU 22153.81186204 .00100252 00000-0 73626-3 0 9997 2 49275 51.6378 34.2590 0003559 204.2017 200.9437 15.72308455 37342 TeikyoSat 4 1 49396U 21102B 22153.42114621 .00000570 00000-0 49663-4 0 9995 2 49396 97.5265 211.9672 0015067 319.2136 40.7960 15.00591109 30795 Z-Sat 1 49399U 21102E 22153.78002782 .00001842 00000-0 14248-3 0 9994 2 49399 97.5374 212.9627 0022651 279.1028 80.7634 15.02520231 30883 KOSEN 1 1 49402U 21102H 22153.58618207 .00002048 00000-0 15373-3 0 9991 2 49402 97.5296 212.8853 0021254 271.1843 88.6947 15.03548434 30875 HO-113 1 50466U 21131B 22153.77381547 .00000086 00000-0 42599-4 0 9991 2 50466 98.5804 231.0342 0004771 176.7688 183.3531 14.38496065 22806 Tevel 1 50999U 22002R 22153.85410078 .00007313 00000-0 39739-3 0 9992 2 50999 97.4811 221.1605 0012964 109.5783 342.4284 15.14723322 21219 Grizu-263a 1 51025U 22002AT 22153.42913757 .00006767 00000-0 35059-3 0 9991 2 51025 97.4981 221.2422 0014544 116.7892 243.4831 15.16426856 21169 NO-116 1 51031U 22002AZ 22153.65381185 .00006070 00000-0 32205-3 0 9994 2 51031 97.4934 221.3187 0014716 114.8988 245.3776 15.15626006 21199 IRIS-A 1 51044U 22002BN 22153.45979899 .00003104 00000-0 17756-3 0 9990 2 51044 97.4824 220.6105 0010851 114.5020 245.7344 15.13351357 21145 DELFI-PQ 1 51074U 22002CU 22153.46191155 .00006924 00000-0 35163-3 0 9990 2 51074 97.5062 221.6531 0015167 143.3931 216.8342 15.17111115 21184 SO-115 1 51080U 22002DA 22153.16207727 .00004159 00000-0 21721-3 0 9990 2 51080 97.5075 221.3103 0014888 143.7762 216.4482 15.16366113 21137 SO-114 1 51081U 22002DB 22153.42661523 .00004162 00000-0 21731-3 0 9993 2 51081 97.5065 221.5559 0015252 142.8590 217.3701 15.16370128 21178 OreSat0 1 52017U 22026K 22153.49959725 .00003959 00000-0 21456-3 0 9997 2 52017 97.5018 153.5407 0026142 329.5819 30.3895 15.14889042 11927 Foresail-1 1 52766U 22057AL 22153.02366154 .00002631 00000-0 15184-3 0 9996 2 52766 97.5208 267.9629 0013428 201.0345 159.0335 15.13146402 1108 /EX